Location: Burgberg
(50.1428°N, 11.0671°E)
Time: 22:21:54
(UTC+00:00)

STARLINK-43 - Pass Details

Date: 26 January 2020
Orbit: 475 x 476 km, 53.0° (Epoch: 17 February)

Event Time Altitude Azimuth Distance (km) Brightness Sun altitude
Exits shadow 05:54:30 15° 289° (WNW) 1,370 5.0 -10.3°
Maximum altitude 05:57:31 78° 204° (SSW) 493 3.3 -9.8°
Drops below altitude 10° 06:01:14 10° 119° (ESE) 1,647 7.6 -9.2°
Sets 06:03:23 0° 118° (ESE) 2,524 9.2 -8.9°
